When you browse on this site, cookies collect data to enhance your experience and personalize the content and advertising you see.
Visit our Privacy Policy to learn more. By continuing to use the site, you agree to this use of cookies and data.
  • In Sweden
  • List of Countries
  • For 7 days
  • Water Temperature
  • Weather Map
  • Weather Widgets
  • user-avatar
    Login

    Hourly Weather Spanaway

    Today, 31 May, Sunday

    Time Temperature Precipitation Wind Pressure Humidity
    00:00 +9°C° 0.5 mm 3 mps 750 mmHg 94%
    01:00 +9°C° 0.5 mm 3 mps 750 mmHg 95%
    02:00 +9°C° 0.4 mm 3 mps 750 mmHg 94%
    03:00 +9°C° 0.4 mm 3 mps 750 mmHg 94%
    04:00 +9°C° 0.4 mm 3 mps 750 mmHg 94%
    05:00 +9°C° 0.1 mm 3 mps 750 mmHg 91%
    06:00 +10°C° 0.1 mm 3 mps 751 mmHg 88%
    07:00 +10°C° 0.1 mm 3 mps 752 mmHg 84%
    08:00 +12°C° 0 mm 3 mps 752 mmHg 74%
    09:00 +13°C° 0 mm 3 mps 752 mmHg 64%
    10:00 +14°C° 0 mm 3 mps 752 mmHg 54%
    11:00 +16°C° 0 mm 3 mps 752 mmHg 51%
    12:00 +17°C° 0 mm 3 mps 753 mmHg 49%
    13:00 +18°C° 0 mm 3 mps 753 mmHg 46%
    14:00 +18°C° 0 mm 3 mps 753 mmHg 45%
    15:00 +18°C° 0 mm 2 mps 752 mmHg 44%
    16:00 +19°C° 0 mm 2 mps 752 mmHg 43%
    17:00 +17°C° 0 mm 2 mps 752 mmHg 49%
    18:00 +16°C° 0 mm 2 mps 753 mmHg 55%
    19:00 +15°C° 0 mm 2 mps 753 mmHg 62%
    20:00 +14°C° 0 mm 1 mps 753 mmHg 67%
    21:00 +12°C° 0 mm 1 mps 753 mmHg 73%
    22:00 +10°C° 0 mm 1 mps 753 mmHg 78%
    23:00 +10°C° 0 mm 1 mps 753 mmHg 79%

    Tomorrow, 1 June, Monday

    Time Temperature Precipitation Wind Pressure Humidity
    00:00 +9°C° 0 mm 0 mps 753 mmHg 80%
    01:00 +9°C° 0 mm 0 mps 753 mmHg 81%
    02:00 +8°C° 0 mm 0 mps 753 mmHg 84%
    03:00 +7°C° 0 mm 0 mps 753 mmHg 87%
    04:00 +7°C° 0 mm 0 mps 753 mmHg 90%
    05:00 +8°C° 0 mm 0 mps 753 mmHg 83%
    06:00 +11°C° 0 mm 1 mps 754 mmHg 76%
    07:00 +12°C° 0 mm 1 mps 754 mmHg 69%
    08:00 +15°C° 0 mm 1 mps 754 mmHg 62%
    09:00 +18°C° 0 mm 1 mps 754 mmHg 54%
    10:00 +20°C° 0 mm 1 mps 754 mmHg 47%
    11:00 +20°C° 0 mm 1 mps 754 mmHg 45%
    12:00 +20°C° 0 mm 1 mps 754 mmHg 43%
    13:00 +20°C° 0 mm 1 mps 754 mmHg 41%
    14:00 +20°C° 0 mm 2 mps 754 mmHg 40%
    15:00 +20°C° 0 mm 2 mps 754 mmHg 40%
    16:00 +20°C° 0 mm 2 mps 754 mmHg 39%
    17:00 +19°C° 0 mm 2 mps 754 mmHg 45%
    18:00 +18°C° 0 mm 2 mps 755 mmHg 52%
    19:00 +17°C° 0 mm 2 mps 755 mmHg 59%
    20:00 +15°C° 0 mm 2 mps 756 mmHg 67%
    21:00 +13°C° 0 mm 1 mps 756 mmHg 75%
    22:00 +10°C° 0 mm 1 mps 756 mmHg 83%
    23:00 +10°C° 0 mm 1 mps 756 mmHg 86%

    Day after tomorrow, 2 June, Tuesday

    Time Temperature Precipitation Wind Pressure Humidity
    00:00 +9°C° 0 mm 1 mps 757 mmHg 89%
    01:00 +8°C° 0 mm 1 mps 757 mmHg 92%
    02:00 +8°C° 0 mm 1 mps 757 mmHg 92%
    03:00 +6°C° 0 mm 0 mps 756 mmHg 93%
    04:00 +6°C° 0 mm 0 mps 756 mmHg 93%
    05:00 +7°C° 0 mm 0 mps 756 mmHg 86%
    06:00 +10°C° 0 mm 1 mps 756 mmHg 79%
    07:00 +12°C° 0 mm 1 mps 756 mmHg 73%
    08:00 +14°C° 0 mm 1 mps 756 mmHg 65%
    09:00 +16°C° 0 mm 1 mps 756 mmHg 58%
    10:00 +18°C° 0 mm 2 mps 756 mmHg 51%
    11:00 +19°C° 0 mm 2 mps 755 mmHg 45%
    12:00 +20°C° 0 mm 3 mps 755 mmHg 40%
    13:00 +22°C° 0 mm 3 mps 755 mmHg 34%
    14:00 +21°C° 0 mm 3 mps 755 mmHg 38%
    15:00 +20°C° 0 mm 4 mps 755 mmHg 42%
    16:00 +19°C° 0 mm 4 mps 755 mmHg 47%
    17:00 +18°C° 0 mm 3 mps 755 mmHg 53%
    18:00 +17°C° 0 mm 3 mps 755 mmHg 59%
    19:00 +16°C° 0 mm 2 mps 755 mmHg 65%
    20:00 +14°C° 0 mm 2 mps 755 mmHg 73%
    21:00 +12°C° 0 mm 1 mps 756 mmHg 81%
    22:00 +11°C° 0 mm 1 mps 756 mmHg 89%
    23:00 +11°C° 0 mm 1 mps 756 mmHg 89%

    3 June, Wednesday

    Time Temperature Precipitation Wind Pressure Humidity
    00:00 +10°C° 0 mm 0 mps 756 mmHg 89%
    01:00 +10°C° 0 mm 0 mps 756 mmHg 89%
    02:00 +10°C° 0 mm 0 mps 756 mmHg 89%
    03:00 +10°C° 0 mm 0 mps 756 mmHg 88%
    04:00 +10°C° 0 mm 0 mps 755 mmHg 88%
    05:00 +11°C° 0 mm 0 mps 755 mmHg 84%
    06:00 +12°C° 0 mm 1 mps 755 mmHg 81%
    07:00 +13°C° 0 mm 1 mps 756 mmHg 77%
    08:00 +15°C° 0 mm 1 mps 755 mmHg 69%
    09:00 +18°C° 0 mm 1 mps 755 mmHg 60%
    10:00 +20°C° 0 mm 1 mps 754 mmHg 51%
    11:00 +21°C° 0 mm 1 mps 754 mmHg 47%
    12:00 +22°C° 0 mm 1 mps 754 mmHg 42%
    13:00 +23°C° 0 mm 1 mps 753 mmHg 38%
    14:00 +23°C° 0 mm 1 mps 753 mmHg 37%
    15:00 +23°C° 0 mm 2 mps 753 mmHg 37%
    16:00 +23°C° 0 mm 2 mps 753 mmHg 36%
    17:00 +20°C° 0 mm 2 mps 752 mmHg 42%
    18:00 +18°C° 0 mm 2 mps 752 mmHg 49%
    19:00 +17°C° 0 mm 2 mps 752 mmHg 55%
    20:00 +15°C° 0 mm 2 mps 752 mmHg 62%
    21:00 +12°C° 0 mm 1 mps 752 mmHg 68%
    22:00 +10°C° 0 mm 1 mps 753 mmHg 75%
    23:00 +10°C° 0 mm 1 mps 752 mmHg 78%

    4 June, Thursday

    Time Temperature Precipitation Wind Pressure Humidity
    00:00 +9°C° 0 mm 1 mps 752 mmHg 81%
    01:00 +8°C° 0 mm 1 mps 752 mmHg 84%
    02:00 +7°C° 0 mm 0 mps 752 mmHg 86%
    03:00 +6°C° 0 mm 0 mps 752 mmHg 88%
    04:00 +6°C° 0 mm 0 mps 752 mmHg 90%
    05:00 +7°C° 0 mm 0 mps 752 mmHg 82%
    06:00 +9°C° 0 mm 0 mps 751 mmHg 74%
    07:00 +11°C° 0 mm 0 mps 751 mmHg 66%
    08:00 +15°C° 0 mm 1 mps 751 mmHg 58%
    09:00 +18°C° 0 mm 1 mps 751 mmHg 50%
    10:00 +20°C° 0 mm 1 mps 750 mmHg 42%
    11:00 +21°C° 0 mm 1 mps 750 mmHg 38%
    12:00 +23°C° 0 mm 1 mps 749 mmHg 35%
    13:00 +24°C° 0 mm 1 mps 749 mmHg 31%
    14:00 +24°C° 0 mm 1 mps 749 mmHg 30%
    15:00 +24°C° 0 mm 1 mps 748 mmHg 30%
    16:00 +24°C° 0 mm 1 mps 748 mmHg 29%
    17:00 +22°C° 0 mm 1 mps 747 mmHg 36%
    18:00 +21°C° 0 mm 1 mps 747 mmHg 43%
    19:00 +19°C° 0 mm 1 mps 747 mmHg 50%
    20:00 +16°C° 0 mm 1 mps 747 mmHg 56%
    21:00 +14°C° 0 mm 1 mps 747 mmHg 63%
    22:00 +12°C° 0 mm 1 mps 747 mmHg 69%
    23:00 +11°C° 0 mm 1 mps 747 mmHg 74%

    5 June, Friday

    Time Temperature Precipitation Wind Pressure Humidity
    00:00 +10°C° 0 mm 1 mps 747 mmHg 79%
    01:00 +9°C° 0 mm 1 mps 747 mmHg 84%
    02:00 +8°C° 0 mm 1 mps 747 mmHg 86%
    03:00 +8°C° 0 mm 1 mps 746 mmHg 88%
    04:00 +7°C° 0 mm 1 mps 746 mmHg 90%
    05:00 +9°C° 0 mm 1 mps 746 mmHg 83%
    06:00 +11°C° 0 mm 1 mps 746 mmHg 76%
    07:00 +12°C° 0 mm 0 mps 745 mmHg 70%
    08:00 +15°C° 0 mm 1 mps 745 mmHg 62%
    09:00 +18°C° 0 mm 1 mps 745 mmHg 55%
    10:00 +20°C° 0 mm 1 mps 745 mmHg 47%
    11:00 +20°C° 0 mm 2 mps 745 mmHg 43%
    12:00 +21°C° 0 mm 2 mps 745 mmHg 39%
    13:00 +22°C° 0 mm 3 mps 744 mmHg 36%
    14:00 +21°C° 0 mm 4 mps 745 mmHg 41%
    15:00 +20°C° 0 mm 4 mps 745 mmHg 45%
    16:00 +18°C° 0 mm 4 mps 745 mmHg 50%
    17:00 +17°C° 0 mm 3 mps 745 mmHg 57%
    18:00 +16°C° 0 mm 2 mps 745 mmHg 63%
    19:00 +14°C° 0 mm 2 mps 746 mmHg 70%
    20:00 +13°C° 0 mm 2 mps 746 mmHg 73%
    21:00 +13°C° 0 mm 2 mps 746 mmHg 77%
    22:00 +12°C° 0 mm 2 mps 747 mmHg 81%
    23:00 +10°C° 0 mm 2 mps 747 mmHg 85%
    Show more